NOVA 1 (12458 NORAD) Tracking and Keplerian Element Data

This shows tracking and keplerian element data for the satellite.

Feedback or suggestion? Click here.




ElementValue
Catalog12458
NameNOVA 1
Epoch Orbit11062
Epoch Day34.918767
Epoch Year2025
RAAN95.8173
Inclination89.8571
Eccentricity0.0012618
Argument of Perigee238.4207
Mean Anonmoly295.0973
Mean Motion13.2322924
Decay Rate8.6E-07
L11 12458U 81044A 25034.91876700 .00000086 00000+0 18219-3 0 9996
L22 12458 89.8571 95.8173 0012618 238.4207 295.0973 13.23229240110620



Live tracking and technical data element details for NOVA 1 (NORAD 12458). NOVA 1 can be tracked NOW for your location showing map with azimuth and elevation plus other details from your city location.







IsCatalogInMostPopularTable: catalog: 12458, numindb: 334
Update: records affected: 1



GetName: 12458 NOVA 1

Hit Count: updated at: Thu, 15 May 2025 18:56:34 GMT